STARLINK-1238 (45233 NORAD) Tracking and Keplerian Element Data

This shows tracking and keplerian element data for the satellite.

Feedback or suggestion? Click here.




ElementValue
Catalog45233
NameSTARLINK-1238
Epoch Orbit2212
Epoch Day190.25001157
Epoch Year2020
RAAN321.2055
Inclination52.9941
Eccentricity0.0001395
Argument of Perigee112.4871
Mean Anonmoly301.7503
Mean Motion15.05558485
Decay Rate0.00044045
L11 45233U 20012BH 20190.25001157 .00044045 00000-0 30250-2 0 9994
L22 45233 52.9941 321.2055 0001395 112.4871 301.7503 15.05558485 22121

Live tracking and technical data element details for STARLINK-1238 (NORAD 45233). STARLINK-1238 can be tracked NOW for your location showing map with azimuth and elevation plus other details from your city location.

Track the satellite on the map from your city or location and see movement details for azimuth, elevation, latitude, longitude, range, height, and movement on the map or in text.







IsCatalogInMostPopularTable: catalog: 45233, numindb: 33
Update: records affected: 1



GetName: 45233 STARLINK-1238

Hit Count: updated at: Fri, 10 Jul 2020 02:39:37 GMT